Index of /20260411/WXO-DD/model_gdps/15km/12/204
Name Last modified Size Description
Parent Directory -
20260411T12Z_MSC_GDPS_AbsoluteVorticity_IsbL-0200_LatLon0.15_PT204H.grib2 2026-04-11 16:55 1.5M
20260411T12Z_MSC_GDPS_AbsoluteVorticity_IsbL-0250_LatLon0.15_PT204H.grib2 2026-04-11 16:55 1.3M
20260411T12Z_MSC_GDPS_AbsoluteVorticity_IsbL-0500_LatLon0.15_PT204H.grib2 2026-04-11 16:55 1.5M
20260411T12Z_MSC_GDPS_AbsoluteVorticity_IsbL-0700_LatLon0.15_PT204H.grib2 2026-04-11 16:55 1.3M
20260411T12Z_MSC_GDPS_AbsoluteVorticity_IsbL-0850_LatLon0.15_PT204H.grib2 2026-04-11 16:55 1.6M
20260411T12Z_MSC_GDPS_AirTemp-Max_AGL-2m_LatLon0.15_PT204H.grib2 2026-04-11 16:55 752K
20260411T12Z_MSC_GDPS_AirTemp-Min_AGL-2m_LatLon0.15_PT204H.grib2 2026-04-11 16:55 796K
20260411T12Z_MSC_GDPS_AirTemp_AGL-120m_LatLon0.15_PT204H.grib2 2026-04-11 16:55 909K
20260411T12Z_MSC_GDPS_AirTemp_AGL-2m_LatLon0.15_PT204H.grib2 2026-04-11 16:55 1.0M
20260411T12Z_MSC_GDPS_AirTemp_AGL-40m_LatLon0.15_PT204H.grib2 2026-04-11 16:55 929K
20260411T12Z_MSC_GDPS_AirTemp_AGL-80m_LatLon0.15_PT204H.grib2 2026-04-11 16:55 918K
20260411T12Z_MSC_GDPS_AirTemp_IsbL-0001_LatLon0.15_PT204H.grib2 2026-04-11 16:55 697K
20260411T12Z_MSC_GDPS_AirTemp_IsbL-0005_LatLon0.15_PT204H.grib2 2026-04-11 16:55 740K
20260411T12Z_MSC_GDPS_AirTemp_IsbL-0010_LatLon0.15_PT204H.grib2 2026-04-11 16:55 751K
20260411T12Z_MSC_GDPS_AirTemp_IsbL-0020_LatLon0.15_PT204H.grib2 2026-04-11 16:55 696K
20260411T12Z_MSC_GDPS_AirTemp_IsbL-0030_LatLon0.15_PT204H.grib2 2026-04-11 16:55 749K
20260411T12Z_MSC_GDPS_AirTemp_IsbL-0050_LatLon0.15_PT204H.grib2 2026-04-11 16:55 813K
20260411T12Z_MSC_GDPS_AirTemp_IsbL-0100_LatLon0.15_PT204H.grib2 2026-04-11 16:55 952K
20260411T12Z_MSC_GDPS_AirTemp_IsbL-0150_LatLon0.15_PT204H.grib2 2026-04-11 16:55 1.0M
20260411T12Z_MSC_GDPS_AirTemp_IsbL-0175_LatLon0.15_PT204H.grib2 2026-04-11 16:55 967K
20260411T12Z_MSC_GDPS_AirTemp_IsbL-0200_LatLon0.15_PT204H.grib2 2026-04-11 16:55 1.0M
20260411T12Z_MSC_GDPS_AirTemp_IsbL-0225_LatLon0.15_PT204H.grib2 2026-04-11 16:55 1.0M
20260411T12Z_MSC_GDPS_AirTemp_IsbL-0250_LatLon0.15_PT204H.grib2 2026-04-11 16:55 1.0M
20260411T12Z_MSC_GDPS_AirTemp_IsbL-0275_LatLon0.15_PT204H.grib2 2026-04-11 16:55 1.0M
20260411T12Z_MSC_GDPS_AirTemp_IsbL-0300_LatLon0.15_PT204H.grib2 2026-04-11 16:55 1.0M
20260411T12Z_MSC_GDPS_AirTemp_IsbL-0350_LatLon0.15_PT204H.grib2 2026-04-11 16:55 1.0M
20260411T12Z_MSC_GDPS_AirTemp_IsbL-0400_LatLon0.15_PT204H.grib2 2026-04-11 16:55 943K
20260411T12Z_MSC_GDPS_AirTemp_IsbL-0450_LatLon0.15_PT204H.grib2 2026-04-11 16:55 965K
20260411T12Z_MSC_GDPS_AirTemp_IsbL-0500_LatLon0.15_PT204H.grib2 2026-04-11 16:55 1.0M
20260411T12Z_MSC_GDPS_AirTemp_IsbL-0550_LatLon0.15_PT204H.grib2 2026-04-11 16:55 1.0M
20260411T12Z_MSC_GDPS_AirTemp_IsbL-0600_LatLon0.15_PT204H.grib2 2026-04-11 16:55 897K
20260411T12Z_MSC_GDPS_AirTemp_IsbL-0650_LatLon0.15_PT204H.grib2 2026-04-11 16:55 923K
20260411T12Z_MSC_GDPS_AirTemp_IsbL-0700_LatLon0.15_PT204H.grib2 2026-04-11 16:55 953K
20260411T12Z_MSC_GDPS_AirTemp_IsbL-0750_LatLon0.15_PT204H.grib2 2026-04-11 16:55 1.0M
20260411T12Z_MSC_GDPS_AirTemp_IsbL-0800_LatLon0.15_PT204H.grib2 2026-04-11 16:55 1.0M
20260411T12Z_MSC_GDPS_AirTemp_IsbL-0850_LatLon0.15_PT204H.grib2 2026-04-11 16:55 1.1M
20260411T12Z_MSC_GDPS_AirTemp_IsbL-0875_LatLon0.15_PT204H.grib2 2026-04-11 16:55 1.1M
20260411T12Z_MSC_GDPS_AirTemp_IsbL-0900_LatLon0.15_PT204H.grib2 2026-04-11 16:55 1.1M
20260411T12Z_MSC_GDPS_AirTemp_IsbL-0925_LatLon0.15_PT204H.grib2 2026-04-11 16:55 1.1M
20260411T12Z_MSC_GDPS_AirTemp_IsbL-0950_LatLon0.15_PT204H.grib2 2026-04-11 16:55 1.1M
20260411T12Z_MSC_GDPS_AirTemp_IsbL-0970_LatLon0.15_PT204H.grib2 2026-04-11 16:55 1.1M
20260411T12Z_MSC_GDPS_AirTemp_IsbL-0985_LatLon0.15_PT204H.grib2 2026-04-11 16:55 1.1M
20260411T12Z_MSC_GDPS_AirTemp_IsbL-1000_LatLon0.15_PT204H.grib2 2026-04-11 16:55 1.1M
20260411T12Z_MSC_GDPS_AirTemp_IsbL-1015_LatLon0.15_PT204H.grib2 2026-04-11 16:55 1.1M
20260411T12Z_MSC_GDPS_Albedo_Sfc_LatLon0.15_PT204H.grib2 2026-04-11 16:55 248K
20260411T12Z_MSC_GDPS_CAPE_Sfc_LatLon0.15_PT204H.grib2 2026-04-11 16:55 3.8M
20260411T12Z_MSC_GDPS_CIN_Sfc_LatLon0.15_PT204H.grib2 2026-04-11 16:55 2.8M
20260411T12Z_MSC_GDPS_CloudWater_EAtm_LatLon0.15_PT204H.grib2 2026-04-11 16:55 528K
20260411T12Z_MSC_GDPS_ConvectivePrecip-Accum_Sfc_LatLon0.15_PT204H.grib2 2026-04-11 16:55 3.6M
20260411T12Z_MSC_GDPS_DewPointDepression_AGL-2m_LatLon0.15_PT204H.grib2 2026-04-11 16:55 748K
20260411T12Z_MSC_GDPS_DewPointDepression_IsbL-0010_LatLon0.15_PT204H.grib2 2026-04-11 16:55 3.3K
20260411T12Z_MSC_GDPS_DewPointDepression_IsbL-0020_LatLon0.15_PT204H.grib2 2026-04-11 16:55 54K
20260411T12Z_MSC_GDPS_DewPointDepression_IsbL-0030_LatLon0.15_PT204H.grib2 2026-04-11 16:55 68K
20260411T12Z_MSC_GDPS_DewPointDepression_IsbL-0050_LatLon0.15_PT204H.grib2 2026-04-11 16:55 353K
20260411T12Z_MSC_GDPS_DewPointDepression_IsbL-0100_LatLon0.15_PT204H.grib2 2026-04-11 16:55 383K
20260411T12Z_MSC_GDPS_DewPointDepression_IsbL-0150_LatLon0.15_PT204H.grib2 2026-04-11 16:55 460K
20260411T12Z_MSC_GDPS_DewPointDepression_IsbL-0175_LatLon0.15_PT204H.grib2 2026-04-11 16:55 547K
20260411T12Z_MSC_GDPS_DewPointDepression_IsbL-0200_LatLon0.15_PT204H.grib2 2026-04-11 16:55 645K
20260411T12Z_MSC_GDPS_DewPointDepression_IsbL-0225_LatLon0.15_PT204H.grib2 2026-04-11 16:55 776K
20260411T12Z_MSC_GDPS_DewPointDepression_IsbL-0250_LatLon0.15_PT204H.grib2 2026-04-11 16:55 884K
20260411T12Z_MSC_GDPS_DewPointDepression_IsbL-0275_LatLon0.15_PT204H.grib2 2026-04-11 16:55 898K
20260411T12Z_MSC_GDPS_DewPointDepression_IsbL-0300_LatLon0.15_PT204H.grib2 2026-04-11 16:55 936K
20260411T12Z_MSC_GDPS_DewPointDepression_IsbL-0350_LatLon0.15_PT204H.grib2 2026-04-11 16:55 965K
20260411T12Z_MSC_GDPS_DewPointDepression_IsbL-0400_LatLon0.15_PT204H.grib2 2026-04-11 16:55 1.0M
20260411T12Z_MSC_GDPS_DewPointDepression_IsbL-0450_LatLon0.15_PT204H.grib2 2026-04-11 16:55 1.0M
20260411T12Z_MSC_GDPS_DewPointDepression_IsbL-0500_LatLon0.15_PT204H.grib2 2026-04-11 16:55 1.0M
20260411T12Z_MSC_GDPS_DewPointDepression_IsbL-0550_LatLon0.15_PT204H.grib2 2026-04-11 16:55 1.1M
20260411T12Z_MSC_GDPS_DewPointDepression_IsbL-0600_LatLon0.15_PT204H.grib2 2026-04-11 16:55 1.1M
20260411T12Z_MSC_GDPS_DewPointDepression_IsbL-0650_LatLon0.15_PT204H.grib2 2026-04-11 16:55 1.1M
20260411T12Z_MSC_GDPS_DewPointDepression_IsbL-0700_LatLon0.15_PT204H.grib2 2026-04-11 16:55 1.1M
20260411T12Z_MSC_GDPS_DewPointDepression_IsbL-0750_LatLon0.15_PT204H.grib2 2026-04-11 16:55 1.1M
20260411T12Z_MSC_GDPS_DewPointDepression_IsbL-0800_LatLon0.15_PT204H.grib2 2026-04-11 16:55 1.2M
20260411T12Z_MSC_GDPS_DewPointDepression_IsbL-0850_LatLon0.15_PT204H.grib2 2026-04-11 16:55 1.2M
20260411T12Z_MSC_GDPS_DewPointDepression_IsbL-0875_LatLon0.15_PT204H.grib2 2026-04-11 16:55 1.1M
20260411T12Z_MSC_GDPS_DewPointDepression_IsbL-0900_LatLon0.15_PT204H.grib2 2026-04-11 16:55 1.1M
20260411T12Z_MSC_GDPS_DewPointDepression_IsbL-0925_LatLon0.15_PT204H.grib2 2026-04-11 16:55 1.0M
20260411T12Z_MSC_GDPS_DewPointDepression_IsbL-0950_LatLon0.15_PT204H.grib2 2026-04-11 16:55 1.0M
20260411T12Z_MSC_GDPS_DewPointDepression_IsbL-0970_LatLon0.15_PT204H.grib2 2026-04-11 16:55 1.0M
20260411T12Z_MSC_GDPS_DewPointDepression_IsbL-0985_LatLon0.15_PT204H.grib2 2026-04-11 16:55 1.0M
20260411T12Z_MSC_GDPS_DewPointDepression_IsbL-1000_LatLon0.15_PT204H.grib2 2026-04-11 16:55 964K
20260411T12Z_MSC_GDPS_DewPointDepression_IsbL-1015_LatLon0.15_PT204H.grib2 2026-04-11 16:55 901K
20260411T12Z_MSC_GDPS_DewPoint_AGL-2m_LatLon0.15_PT204H.grib2 2026-04-11 16:55 605K
20260411T12Z_MSC_GDPS_DownwardLongwaveRadiationFlux-Accum_Sfc_LatLon0.15_PT204H.grib2 2026-04-11 16:55 671K
20260411T12Z_MSC_GDPS_DownwardShortwaveRadiationFlux-Accum_NTAtm_LatLon0.15_PT204H.grib2 2026-04-11 16:55 286K
20260411T12Z_MSC_GDPS_DownwardShortwaveRadiationFlux-Accum_Sfc_LatLon0.15_PT204H.grib2 2026-04-11 16:55 882K
20260411T12Z_MSC_GDPS_FreezingRain-Accum12h_Sfc_LatLon0.15_PT204H.grib2 2026-04-11 16:55 104K
20260411T12Z_MSC_GDPS_FreezingRain-Accum24h_Sfc_LatLon0.15_PT204H.grib2 2026-04-11 16:55 134K
20260411T12Z_MSC_GDPS_FreezingRain-Accum6h_Sfc_LatLon0.15_PT204H.grib2 2026-04-11 16:55 76K
20260411T12Z_MSC_GDPS_FreezingRain-Accum_Sfc_LatLon0.15_PT204H.grib2 2026-04-11 16:55 327K
20260411T12Z_MSC_GDPS_GeopotentialHeight_IsbL-0001_LatLon0.15_PT204H.grib2 2026-04-11 16:55 513K
20260411T12Z_MSC_GDPS_GeopotentialHeight_IsbL-0005_LatLon0.15_PT204H.grib2 2026-04-11 16:55 494K
20260411T12Z_MSC_GDPS_GeopotentialHeight_IsbL-0010_LatLon0.15_PT204H.grib2 2026-04-11 16:55 426K
20260411T12Z_MSC_GDPS_GeopotentialHeight_IsbL-0020_LatLon0.15_PT204H.grib2 2026-04-11 16:55 569K
20260411T12Z_MSC_GDPS_GeopotentialHeight_IsbL-0030_LatLon0.15_PT204H.grib2 2026-04-11 16:55 578K
20260411T12Z_MSC_GDPS_GeopotentialHeight_IsbL-0050_LatLon0.15_PT204H.grib2 2026-04-11 16:55 578K
20260411T12Z_MSC_GDPS_GeopotentialHeight_IsbL-0100_LatLon0.15_PT204H.grib2 2026-04-11 16:55 616K
20260411T12Z_MSC_GDPS_GeopotentialHeight_IsbL-0150_LatLon0.15_PT204H.grib2 2026-04-11 16:55 632K
20260411T12Z_MSC_GDPS_GeopotentialHeight_IsbL-0175_LatLon0.15_PT204H.grib2 2026-04-11 16:55 635K
20260411T12Z_MSC_GDPS_GeopotentialHeight_IsbL-0200_LatLon0.15_PT204H.grib2 2026-04-11 16:55 639K
20260411T12Z_MSC_GDPS_GeopotentialHeight_IsbL-0225_LatLon0.15_PT204H.grib2 2026-04-11 16:55 635K
20260411T12Z_MSC_GDPS_GeopotentialHeight_IsbL-0250_LatLon0.15_PT204H.grib2 2026-04-11 16:55 645K
20260411T12Z_MSC_GDPS_GeopotentialHeight_IsbL-0275_LatLon0.15_PT204H.grib2 2026-04-11 16:55 641K
20260411T12Z_MSC_GDPS_GeopotentialHeight_IsbL-0300_LatLon0.15_PT204H.grib2 2026-04-11 16:55 639K
20260411T12Z_MSC_GDPS_GeopotentialHeight_IsbL-0350_LatLon0.15_PT204H.grib2 2026-04-11 16:55 630K
20260411T12Z_MSC_GDPS_GeopotentialHeight_IsbL-0400_LatLon0.15_PT204H.grib2 2026-04-11 16:55 620K
20260411T12Z_MSC_GDPS_GeopotentialHeight_IsbL-0450_LatLon0.15_PT204H.grib2 2026-04-11 16:55 540K
20260411T12Z_MSC_GDPS_GeopotentialHeight_IsbL-0500_LatLon0.15_PT204H.grib2 2026-04-11 16:55 530K
20260411T12Z_MSC_GDPS_GeopotentialHeight_IsbL-0550_LatLon0.15_PT204H.grib2 2026-04-11 16:55 693K
20260411T12Z_MSC_GDPS_GeopotentialHeight_IsbL-0600_LatLon0.15_PT204H.grib2 2026-04-11 16:55 685K
20260411T12Z_MSC_GDPS_GeopotentialHeight_IsbL-0650_LatLon0.15_PT204H.grib2 2026-04-11 16:55 685K
20260411T12Z_MSC_GDPS_GeopotentialHeight_IsbL-0700_LatLon0.15_PT204H.grib2 2026-04-11 16:55 686K
20260411T12Z_MSC_GDPS_GeopotentialHeight_IsbL-0750_LatLon0.15_PT204H.grib2 2026-04-11 16:55 691K
20260411T12Z_MSC_GDPS_GeopotentialHeight_IsbL-0800_LatLon0.15_PT204H.grib2 2026-04-11 16:55 700K
20260411T12Z_MSC_GDPS_GeopotentialHeight_IsbL-0850_LatLon0.15_PT204H.grib2 2026-04-11 16:55 706K
20260411T12Z_MSC_GDPS_GeopotentialHeight_IsbL-0875_LatLon0.15_PT204H.grib2 2026-04-11 16:55 718K
20260411T12Z_MSC_GDPS_GeopotentialHeight_IsbL-0900_LatLon0.15_PT204H.grib2 2026-04-11 16:55 726K
20260411T12Z_MSC_GDPS_GeopotentialHeight_IsbL-0925_LatLon0.15_PT204H.grib2 2026-04-11 16:55 730K
20260411T12Z_MSC_GDPS_GeopotentialHeight_IsbL-0950_LatLon0.15_PT204H.grib2 2026-04-11 16:55 738K
20260411T12Z_MSC_GDPS_GeopotentialHeight_IsbL-0970_LatLon0.15_PT204H.grib2 2026-04-11 16:55 748K
20260411T12Z_MSC_GDPS_GeopotentialHeight_IsbL-0985_LatLon0.15_PT204H.grib2 2026-04-11 16:55 763K
20260411T12Z_MSC_GDPS_GeopotentialHeight_IsbL-1000_LatLon0.15_PT204H.grib2 2026-04-11 16:55 784K
20260411T12Z_MSC_GDPS_GeopotentialHeight_IsbL-1015_LatLon0.15_PT204H.grib2 2026-04-11 16:55 806K
20260411T12Z_MSC_GDPS_Humidex_Sfc_LatLon0.15_PT204H.grib2 2026-04-11 16:55 5.3M
20260411T12Z_MSC_GDPS_IcePellets-Accum12h_Sfc_LatLon0.15_PT204H.grib2 2026-04-11 16:55 48K
20260411T12Z_MSC_GDPS_IcePellets-Accum24h_Sfc_LatLon0.15_PT204H.grib2 2026-04-11 16:55 89K
20260411T12Z_MSC_GDPS_IcePellets-Accum6h_Sfc_LatLon0.15_PT204H.grib2 2026-04-11 16:55 32K
20260411T12Z_MSC_GDPS_IcePellets-Accum_Sfc_LatLon0.15_PT204H.grib2 2026-04-11 16:55 219K
20260411T12Z_MSC_GDPS_KIndex_Sfc_LatLon0.15_PT204H.grib2 2026-04-11 16:55 6.5M
20260411T12Z_MSC_GDPS_LatentHeatNetFlux_Sfc_LatLon0.15_PT204H.grib2 2026-04-11 16:55 638K
20260411T12Z_MSC_GDPS_LiftedIndex-MU-VT_IsbL-0500_LatLon0.15_PT204H.grib2 2026-04-11 16:55 5.3M
20260411T12Z_MSC_GDPS_NetLongwaveRadiationFlux-Accum_Sfc_LatLon0.15_PT204H.grib2 2026-04-11 16:55 897K
20260411T12Z_MSC_GDPS_NetShortwaveRadiationFlux-Accum_Sfc_LatLon0.15_PT204H.grib2 2026-04-11 16:55 887K
20260411T12Z_MSC_GDPS_O3MixingRatio_LatLon0.15_PT204H.grib2 2026-04-11 17:07 1.9M
20260411T12Z_MSC_GDPS_O3_EAtm_LatLon0.15_PT204H.grib2 2026-04-11 17:07 2.4M
20260411T12Z_MSC_GDPS_PlanetaryBoundaryLayerHeight_Sfc_LatLon0.15_PT204H.grib2 2026-04-11 16:55 2.4M
20260411T12Z_MSC_GDPS_Precip-Accum12h_Sfc_LatLon0.15_PT204H.grib2 2026-04-11 16:55 4.0M
20260411T12Z_MSC_GDPS_Precip-Accum24h_Sfc_LatLon0.15_PT204H.grib2 2026-04-11 16:55 4.5M
20260411T12Z_MSC_GDPS_Precip-Accum6h_Sfc_LatLon0.15_PT204H.grib2 2026-04-11 16:55 3.7M
20260411T12Z_MSC_GDPS_Precip-Accum_Sfc_LatLon0.15_PT204H.grib2 2026-04-11 16:55 5.0M
20260411T12Z_MSC_GDPS_PrecipRate_Sfc_LatLon0.15_PT204H.grib2 2026-04-11 16:55 2.8M
20260411T12Z_MSC_GDPS_PrecipType-Instant_Sfc_LatLon0.15_PT204H.grib2 2026-04-11 16:55 1.5M
20260411T12Z_MSC_GDPS_Pressure_MSL_LatLon0.15_PT204H.grib2 2026-04-11 16:55 818K
20260411T12Z_MSC_GDPS_Pressure_PVU-1.5_LatLon0.15_PT204H.grib2 2026-04-11 16:55 5.8M
20260411T12Z_MSC_GDPS_Pressure_PVU-1_LatLon0.15_PT204H.grib2 2026-04-11 16:55 6.0M
20260411T12Z_MSC_GDPS_Pressure_PVU-2_LatLon0.15_PT204H.grib2 2026-04-11 16:55 5.6M
20260411T12Z_MSC_GDPS_Pressure_Sfc_LatLon0.15_PT204H.grib2 2026-04-11 16:55 1.1M
20260411T12Z_MSC_GDPS_RadiativeTemp_Sfc_LatLon0.15_PT204H.grib2 2026-04-11 16:55 662K
20260411T12Z_MSC_GDPS_Rain-Accum12h_Sfc_LatLon0.15_PT204H.grib2 2026-04-11 16:55 2.6M
20260411T12Z_MSC_GDPS_Rain-Accum24h_Sfc_LatLon0.15_PT204H.grib2 2026-04-11 16:55 3.0M
20260411T12Z_MSC_GDPS_Rain-Accum6h_Sfc_LatLon0.15_PT204H.grib2 2026-04-11 16:55 2.3M
20260411T12Z_MSC_GDPS_Rain-Accum_Sfc_LatLon0.15_PT204H.grib2 2026-04-11 16:55 4.1M
20260411T12Z_MSC_GDPS_RelativeHumidity_AGL-2m_LatLon0.15_PT204H.grib2 2026-04-11 16:55 1.0M
20260411T12Z_MSC_GDPS_RelativeHumidity_IsbL-0010_LatLon0.15_PT204H.grib2 2026-04-11 16:55 213K
20260411T12Z_MSC_GDPS_RelativeHumidity_IsbL-0020_LatLon0.15_PT204H.grib2 2026-04-11 16:55 346K
20260411T12Z_MSC_GDPS_RelativeHumidity_IsbL-0030_LatLon0.15_PT204H.grib2 2026-04-11 16:55 369K
20260411T12Z_MSC_GDPS_RelativeHumidity_IsbL-0050_LatLon0.15_PT204H.grib2 2026-04-11 16:55 403K
20260411T12Z_MSC_GDPS_RelativeHumidity_IsbL-0100_LatLon0.15_PT204H.grib2 2026-04-11 16:55 475K
20260411T12Z_MSC_GDPS_RelativeHumidity_IsbL-0150_LatLon0.15_PT204H.grib2 2026-04-11 16:55 654K
20260411T12Z_MSC_GDPS_RelativeHumidity_IsbL-0175_LatLon0.15_PT204H.grib2 2026-04-11 16:55 791K
20260411T12Z_MSC_GDPS_RelativeHumidity_IsbL-0200_LatLon0.15_PT204H.grib2 2026-04-11 16:55 705K
20260411T12Z_MSC_GDPS_RelativeHumidity_IsbL-0225_LatLon0.15_PT204H.grib2 2026-04-11 16:55 799K
20260411T12Z_MSC_GDPS_RelativeHumidity_IsbL-0250_LatLon0.15_PT204H.grib2 2026-04-11 16:55 887K
20260411T12Z_MSC_GDPS_RelativeHumidity_IsbL-0275_LatLon0.15_PT204H.grib2 2026-04-11 16:55 911K
20260411T12Z_MSC_GDPS_RelativeHumidity_IsbL-0300_LatLon0.15_PT204H.grib2 2026-04-11 16:55 952K
20260411T12Z_MSC_GDPS_RelativeHumidity_IsbL-0350_LatLon0.15_PT204H.grib2 2026-04-11 16:55 966K
20260411T12Z_MSC_GDPS_RelativeHumidity_IsbL-0400_LatLon0.15_PT204H.grib2 2026-04-11 16:55 1.0M
20260411T12Z_MSC_GDPS_RelativeHumidity_IsbL-0450_LatLon0.15_PT204H.grib2 2026-04-11 16:55 1.0M
20260411T12Z_MSC_GDPS_RelativeHumidity_IsbL-0500_LatLon0.15_PT204H.grib2 2026-04-11 16:55 1.0M
20260411T12Z_MSC_GDPS_RelativeHumidity_IsbL-0550_LatLon0.15_PT204H.grib2 2026-04-11 16:55 1.0M
20260411T12Z_MSC_GDPS_RelativeHumidity_IsbL-0600_LatLon0.15_PT204H.grib2 2026-04-11 16:55 1.1M
20260411T12Z_MSC_GDPS_RelativeHumidity_IsbL-0650_LatLon0.15_PT204H.grib2 2026-04-11 16:55 1.1M
20260411T12Z_MSC_GDPS_RelativeHumidity_IsbL-0700_LatLon0.15_PT204H.grib2 2026-04-11 16:55 1.1M
20260411T12Z_MSC_GDPS_RelativeHumidity_IsbL-0750_LatLon0.15_PT204H.grib2 2026-04-11 16:55 1.1M
20260411T12Z_MSC_GDPS_RelativeHumidity_IsbL-0800_LatLon0.15_PT204H.grib2 2026-04-11 16:55 1.2M
20260411T12Z_MSC_GDPS_RelativeHumidity_IsbL-0850_LatLon0.15_PT204H.grib2 2026-04-11 16:55 1.3M
20260411T12Z_MSC_GDPS_RelativeHumidity_IsbL-0875_LatLon0.15_PT204H.grib2 2026-04-11 16:55 1.2M
20260411T12Z_MSC_GDPS_RelativeHumidity_IsbL-0900_LatLon0.15_PT204H.grib2 2026-04-11 16:55 1.2M
20260411T12Z_MSC_GDPS_RelativeHumidity_IsbL-0925_LatLon0.15_PT204H.grib2 2026-04-11 16:55 1.2M
20260411T12Z_MSC_GDPS_RelativeHumidity_IsbL-0950_LatLon0.15_PT204H.grib2 2026-04-11 16:55 1.2M
20260411T12Z_MSC_GDPS_RelativeHumidity_IsbL-0970_LatLon0.15_PT204H.grib2 2026-04-11 16:55 1.2M
20260411T12Z_MSC_GDPS_RelativeHumidity_IsbL-0985_LatLon0.15_PT204H.grib2 2026-04-11 16:55 1.1M
20260411T12Z_MSC_GDPS_RelativeHumidity_IsbL-1000_LatLon0.15_PT204H.grib2 2026-04-11 16:55 1.1M
20260411T12Z_MSC_GDPS_RelativeHumidity_IsbL-1015_LatLon0.15_PT204H.grib2 2026-04-11 16:55 1.0M
20260411T12Z_MSC_GDPS_RelativeVorticity_IsbL-0200_LatLon0.15_PT204H.grib2 2026-04-11 16:55 1.5M
20260411T12Z_MSC_GDPS_RelativeVorticity_IsbL-0250_LatLon0.15_PT204H.grib2 2026-04-11 16:55 1.3M
20260411T12Z_MSC_GDPS_RelativeVorticity_IsbL-0500_LatLon0.15_PT204H.grib2 2026-04-11 16:55 1.4M
20260411T12Z_MSC_GDPS_RelativeVorticity_IsbL-0700_LatLon0.15_PT204H.grib2 2026-04-11 16:55 1.6M
20260411T12Z_MSC_GDPS_RelativeVorticity_IsbL-0850_LatLon0.15_PT204H.grib2 2026-04-11 16:55 1.6M
20260411T12Z_MSC_GDPS_Runoff-Accum_Sfc_LatLon0.15_PT204H.grib2 2026-04-11 16:55 106K
20260411T12Z_MSC_GDPS_SensibleHeatNetFlux_Sfc_LatLon0.15_PT204H.grib2 2026-04-11 16:55 426K
20260411T12Z_MSC_GDPS_ShowalterIndex_IsbL-0500_LatLon0.15_PT204H.grib2 2026-04-11 16:55 6.2M
20260411T12Z_MSC_GDPS_Snow-Accum12h_Sfc_LatLon0.15_PT204H.grib2 2026-04-11 16:55 1.5M
20260411T12Z_MSC_GDPS_Snow-Accum24h_Sfc_LatLon0.15_PT204H.grib2 2026-04-11 16:55 1.6M
20260411T12Z_MSC_GDPS_Snow-Accum6h_Sfc_LatLon0.15_PT204H.grib2 2026-04-11 16:55 1.5M
20260411T12Z_MSC_GDPS_Snow-Accum_Sfc_LatLon0.15_PT204H.grib2 2026-04-11 16:55 1.9M
20260411T12Z_MSC_GDPS_SnowDensity_Sfc_LatLon0.15_PT204H.grib2 2026-04-11 16:55 271K
20260411T12Z_MSC_GDPS_SnowDepth_Sfc_LatLon0.15_PT204H.grib2 2026-04-11 16:55 1.8M
20260411T12Z_MSC_GDPS_SoilTemp_DBS-0to10cm_LatLon0.15_PT204H.grib2 2026-04-11 16:55 513K
20260411T12Z_MSC_GDPS_SoilTemp_Sfc_LatLon0.15_PT204H.grib2 2026-04-11 16:55 573K
20260411T12Z_MSC_GDPS_SoilVolumetricIceContent_Sfc_LatLon0.15_PT204H.grib2 2026-04-11 16:55 224K
20260411T12Z_MSC_GDPS_SoilVolumetricWaterContent_DBS-0to10cm_LatLon0.15_PT204H.grib2 2026-04-11 16:55 552K
20260411T12Z_MSC_GDPS_SoilVolumetricWaterContent_DBS-0to1cm_LatLon0.15_PT204H.grib2 2026-04-11 16:55 649K
20260411T12Z_MSC_GDPS_SpecificHumidity_AGL-120m_LatLon0.15_PT204H.grib2 2026-04-11 16:55 1.1M
20260411T12Z_MSC_GDPS_SpecificHumidity_AGL-2m_LatLon0.15_PT204H.grib2 2026-04-11 16:55 1.2M
20260411T12Z_MSC_GDPS_SpecificHumidity_AGL-40m_LatLon0.15_PT204H.grib2 2026-04-11 16:55 1.1M
20260411T12Z_MSC_GDPS_SpecificHumidity_AGL-80m_LatLon0.15_PT204H.grib2 2026-04-11 16:55 1.1M
20260411T12Z_MSC_GDPS_SpecificHumidity_IsbL-0001_LatLon0.15_PT204H.grib2 2026-04-11 16:55 1.0M
20260411T12Z_MSC_GDPS_SpecificHumidity_IsbL-0005_LatLon0.15_PT204H.grib2 2026-04-11 16:55 1.0M
20260411T12Z_MSC_GDPS_SpecificHumidity_IsbL-0010_LatLon0.15_PT204H.grib2 2026-04-11 16:55 1.1M
20260411T12Z_MSC_GDPS_SpecificHumidity_IsbL-0020_LatLon0.15_PT204H.grib2 2026-04-11 16:55 1.5M
20260411T12Z_MSC_GDPS_SpecificHumidity_IsbL-0030_LatLon0.15_PT204H.grib2 2026-04-11 16:55 1.5M
20260411T12Z_MSC_GDPS_SpecificHumidity_IsbL-0050_LatLon0.15_PT204H.grib2 2026-04-11 16:55 1.2M
20260411T12Z_MSC_GDPS_SpecificHumidity_IsbL-0100_LatLon0.15_PT204H.grib2 2026-04-11 16:55 1.2M
20260411T12Z_MSC_GDPS_SpecificHumidity_IsbL-0150_LatLon0.15_PT204H.grib2 2026-04-11 16:55 1.3M
20260411T12Z_MSC_GDPS_SpecificHumidity_IsbL-0175_LatLon0.15_PT204H.grib2 2026-04-11 16:55 1.3M
20260411T12Z_MSC_GDPS_SpecificHumidity_IsbL-0200_LatLon0.15_PT204H.grib2 2026-04-11 16:55 1.3M
20260411T12Z_MSC_GDPS_SpecificHumidity_IsbL-0225_LatLon0.15_PT204H.grib2 2026-04-11 16:55 1.3M
20260411T12Z_MSC_GDPS_SpecificHumidity_IsbL-0250_LatLon0.15_PT204H.grib2 2026-04-11 16:55 1.5M
20260411T12Z_MSC_GDPS_SpecificHumidity_IsbL-0275_LatLon0.15_PT204H.grib2 2026-04-11 16:55 1.3M
20260411T12Z_MSC_GDPS_SpecificHumidity_IsbL-0300_LatLon0.15_PT204H.grib2 2026-04-11 16:55 1.3M
20260411T12Z_MSC_GDPS_SpecificHumidity_IsbL-0350_LatLon0.15_PT204H.grib2 2026-04-11 16:55 1.5M
20260411T12Z_MSC_GDPS_SpecificHumidity_IsbL-0400_LatLon0.15_PT204H.grib2 2026-04-11 16:55 1.5M
20260411T12Z_MSC_GDPS_SpecificHumidity_IsbL-0450_LatLon0.15_PT204H.grib2 2026-04-11 16:55 1.6M
20260411T12Z_MSC_GDPS_SpecificHumidity_IsbL-0500_LatLon0.15_PT204H.grib2 2026-04-11 16:55 1.4M
20260411T12Z_MSC_GDPS_SpecificHumidity_IsbL-0550_LatLon0.15_PT204H.grib2 2026-04-11 16:55 1.6M
20260411T12Z_MSC_GDPS_SpecificHumidity_IsbL-0600_LatLon0.15_PT204H.grib2 2026-04-11 16:55 1.7M
20260411T12Z_MSC_GDPS_SpecificHumidity_IsbL-0650_LatLon0.15_PT204H.grib2 2026-04-11 16:55 1.5M
20260411T12Z_MSC_GDPS_SpecificHumidity_IsbL-0700_LatLon0.15_PT204H.grib2 2026-04-11 16:55 1.6M
20260411T12Z_MSC_GDPS_SpecificHumidity_IsbL-0750_LatLon0.15_PT204H.grib2 2026-04-11 16:55 1.7M
20260411T12Z_MSC_GDPS_SpecificHumidity_IsbL-0800_LatLon0.15_PT204H.grib2 2026-04-11 16:55 1.8M
20260411T12Z_MSC_GDPS_SpecificHumidity_IsbL-0850_LatLon0.15_PT204H.grib2 2026-04-11 16:55 1.9M
20260411T12Z_MSC_GDPS_SpecificHumidity_IsbL-0875_LatLon0.15_PT204H.grib2 2026-04-11 16:55 1.9M
20260411T12Z_MSC_GDPS_SpecificHumidity_IsbL-0900_LatLon0.15_PT204H.grib2 2026-04-11 16:55 1.9M
20260411T12Z_MSC_GDPS_SpecificHumidity_IsbL-0925_LatLon0.15_PT204H.grib2 2026-04-11 16:55 1.9M
20260411T12Z_MSC_GDPS_SpecificHumidity_IsbL-0950_LatLon0.15_PT204H.grib2 2026-04-11 16:55 1.9M
20260411T12Z_MSC_GDPS_SpecificHumidity_IsbL-0970_LatLon0.15_PT204H.grib2 2026-04-11 16:55 1.5M
20260411T12Z_MSC_GDPS_SpecificHumidity_IsbL-0985_LatLon0.15_PT204H.grib2 2026-04-11 16:55 1.5M
20260411T12Z_MSC_GDPS_SpecificHumidity_IsbL-1000_LatLon0.15_PT204H.grib2 2026-04-11 16:55 1.5M
20260411T12Z_MSC_GDPS_SpecificHumidity_IsbL-1015_LatLon0.15_PT204H.grib2 2026-04-11 16:55 1.4M
20260411T12Z_MSC_GDPS_SpecificHumidity_Sfc_LatLon0.15_PT204H.grib2 2026-04-11 16:55 624K
20260411T12Z_MSC_GDPS_Thickness_IsbL-0850to0700_LatLon0.15_PT204H.grib2 2026-04-11 16:55 469K
20260411T12Z_MSC_GDPS_Thickness_IsbL-1000to0500_LatLon0.15_PT204H.grib2 2026-04-11 16:55 375K
20260411T12Z_MSC_GDPS_Thickness_IsbL-1000to0850_LatLon0.15_PT204H.grib2 2026-04-11 16:55 490K
20260411T12Z_MSC_GDPS_TotalCloudCover_Sfc_LatLon0.15_PT204H.grib2 2026-04-11 16:55 815K
20260411T12Z_MSC_GDPS_TotalTotalsIndex_Sfc_LatLon0.15_PT204H.grib2 2026-04-11 16:55 6.2M
20260411T12Z_MSC_GDPS_UVIndex-ClearSky_Sfc_LatLon0.15_PT204H.grib2 2026-04-11 17:07 1.0M
20260411T12Z_MSC_GDPS_UVIndex_Sfc_LatLon0.15_PT204H.grib2 2026-04-11 17:07 1.4M
20260411T12Z_MSC_GDPS_UpwardLongwaveRadiationFlux_NTAtm_LatLon0.15_PT204H.grib2 2026-04-11 16:55 1.1M
20260411T12Z_MSC_GDPS_VerticalVelocity_IsbL-0200_LatLon0.15_PT204H.grib2 2026-04-11 16:55 1.1M
20260411T12Z_MSC_GDPS_VerticalVelocity_IsbL-0250_LatLon0.15_PT204H.grib2 2026-04-11 16:55 1.0M
20260411T12Z_MSC_GDPS_VerticalVelocity_IsbL-0500_LatLon0.15_PT204H.grib2 2026-04-11 16:55 1.3M
20260411T12Z_MSC_GDPS_VerticalVelocity_IsbL-0600_LatLon0.15_PT204H.grib2 2026-04-11 16:55 1.3M
20260411T12Z_MSC_GDPS_VerticalVelocity_IsbL-0700_LatLon0.15_PT204H.grib2 2026-04-11 16:55 1.4M
20260411T12Z_MSC_GDPS_VerticalVelocity_IsbL-0850_LatLon0.15_PT204H.grib2 2026-04-11 16:55 1.3M
20260411T12Z_MSC_GDPS_WindChill_Sfc_LatLon0.15_PT204H.grib2 2026-04-11 16:55 5.3M
20260411T12Z_MSC_GDPS_WindDir_AGL-10m_LatLon0.15_PT204H.grib2 2026-04-11 16:55 1.3M
20260411T12Z_MSC_GDPS_WindDir_AGL-120m_LatLon0.15_PT204H.grib2 2026-04-11 16:55 1.4M
20260411T12Z_MSC_GDPS_WindDir_AGL-40m_LatLon0.15_PT204H.grib2 2026-04-11 16:55 1.4M
20260411T12Z_MSC_GDPS_WindDir_AGL-80m_LatLon0.15_PT204H.grib2 2026-04-11 16:55 1.4M
20260411T12Z_MSC_GDPS_WindDir_IsbL-0001_LatLon0.15_PT204H.grib2 2026-04-11 16:55 650K
20260411T12Z_MSC_GDPS_WindDir_IsbL-0005_LatLon0.15_PT204H.grib2 2026-04-11 16:55 817K
20260411T12Z_MSC_GDPS_WindDir_IsbL-0010_LatLon0.15_PT204H.grib2 2026-04-11 16:55 868K
20260411T12Z_MSC_GDPS_WindDir_IsbL-0020_LatLon0.15_PT204H.grib2 2026-04-11 16:55 936K
20260411T12Z_MSC_GDPS_WindDir_IsbL-0030_LatLon0.15_PT204H.grib2 2026-04-11 16:55 903K
20260411T12Z_MSC_GDPS_WindDir_IsbL-0050_LatLon0.15_PT204H.grib2 2026-04-11 16:55 939K
20260411T12Z_MSC_GDPS_WindDir_IsbL-0100_LatLon0.15_PT204H.grib2 2026-04-11 16:55 1.0M
20260411T12Z_MSC_GDPS_WindDir_IsbL-0150_LatLon0.15_PT204H.grib2 2026-04-11 16:55 1.0M
20260411T12Z_MSC_GDPS_WindDir_IsbL-0175_LatLon0.15_PT204H.grib2 2026-04-11 16:55 1.1M
20260411T12Z_MSC_GDPS_WindDir_IsbL-0200_LatLon0.15_PT204H.grib2 2026-04-11 16:55 1.1M
20260411T12Z_MSC_GDPS_WindDir_IsbL-0225_LatLon0.15_PT204H.grib2 2026-04-11 16:55 1.1M
20260411T12Z_MSC_GDPS_WindDir_IsbL-0250_LatLon0.15_PT204H.grib2 2026-04-11 16:55 1.1M
20260411T12Z_MSC_GDPS_WindDir_IsbL-0275_LatLon0.15_PT204H.grib2 2026-04-11 16:55 1.2M
20260411T12Z_MSC_GDPS_WindDir_IsbL-0300_LatLon0.15_PT204H.grib2 2026-04-11 16:55 1.2M
20260411T12Z_MSC_GDPS_WindDir_IsbL-0350_LatLon0.15_PT204H.grib2 2026-04-11 16:55 1.2M
20260411T12Z_MSC_GDPS_WindDir_IsbL-0400_LatLon0.15_PT204H.grib2 2026-04-11 16:55 1.3M
20260411T12Z_MSC_GDPS_WindDir_IsbL-0450_LatLon0.15_PT204H.grib2 2026-04-11 16:55 1.3M
20260411T12Z_MSC_GDPS_WindDir_IsbL-0500_LatLon0.15_PT204H.grib2 2026-04-11 16:55 1.3M
20260411T12Z_MSC_GDPS_WindDir_IsbL-0550_LatLon0.15_PT204H.grib2 2026-04-11 16:55 1.4M
20260411T12Z_MSC_GDPS_WindDir_IsbL-0600_LatLon0.15_PT204H.grib2 2026-04-11 16:55 1.5M
20260411T12Z_MSC_GDPS_WindDir_IsbL-0650_LatLon0.15_PT204H.grib2 2026-04-11 16:55 1.5M
20260411T12Z_MSC_GDPS_WindDir_IsbL-0700_LatLon0.15_PT204H.grib2 2026-04-11 16:55 1.6M
20260411T12Z_MSC_GDPS_WindDir_IsbL-0750_LatLon0.15_PT204H.grib2 2026-04-11 16:55 1.7M
20260411T12Z_MSC_GDPS_WindDir_IsbL-0800_LatLon0.15_PT204H.grib2 2026-04-11 16:55 1.8M
20260411T12Z_MSC_GDPS_WindDir_IsbL-0850_LatLon0.15_PT204H.grib2 2026-04-11 16:55 1.9M
20260411T12Z_MSC_GDPS_WindDir_IsbL-0875_LatLon0.15_PT204H.grib2 2026-04-11 16:55 2.0M
20260411T12Z_MSC_GDPS_WindDir_IsbL-0900_LatLon0.15_PT204H.grib2 2026-04-11 16:55 2.0M
20260411T12Z_MSC_GDPS_WindDir_IsbL-0925_LatLon0.15_PT204H.grib2 2026-04-11 16:55 2.0M
20260411T12Z_MSC_GDPS_WindDir_IsbL-0950_LatLon0.15_PT204H.grib2 2026-04-11 16:55 2.0M
20260411T12Z_MSC_GDPS_WindDir_IsbL-0970_LatLon0.15_PT204H.grib2 2026-04-11 16:55 2.0M
20260411T12Z_MSC_GDPS_WindDir_IsbL-0985_LatLon0.15_PT204H.grib2 2026-04-11 16:55 2.0M
20260411T12Z_MSC_GDPS_WindDir_IsbL-1000_LatLon0.15_PT204H.grib2 2026-04-11 16:55 2.1M
20260411T12Z_MSC_GDPS_WindDir_IsbL-1015_LatLon0.15_PT204H.grib2 2026-04-11 16:55 2.1M
20260411T12Z_MSC_GDPS_WindGust-Max_AGL-10m_LatLon0.15_PT204H.grib2 2026-04-11 16:55 2.2M
20260411T12Z_MSC_GDPS_WindGust-Min_AGL-10m_LatLon0.15_PT204H.grib2 2026-04-11 16:55 2.1M
20260411T12Z_MSC_GDPS_WindGust_AGL-10m_LatLon0.15_PT204H.grib2 2026-04-11 16:55 2.1M
20260411T12Z_MSC_GDPS_WindSpeed_AGL-10m_LatLon0.15_PT204H.grib2 2026-04-11 16:55 1.1M
20260411T12Z_MSC_GDPS_WindSpeed_AGL-120m_LatLon0.15_PT204H.grib2 2026-04-11 16:55 1.2M
20260411T12Z_MSC_GDPS_WindSpeed_AGL-40m_LatLon0.15_PT204H.grib2 2026-04-11 16:55 1.2M
20260411T12Z_MSC_GDPS_WindSpeed_AGL-80m_LatLon0.15_PT204H.grib2 2026-04-11 16:55 1.2M
20260411T12Z_MSC_GDPS_WindSpeed_IsbL-0001_LatLon0.15_PT204H.grib2 2026-04-11 16:55 631K
20260411T12Z_MSC_GDPS_WindSpeed_IsbL-0005_LatLon0.15_PT204H.grib2 2026-04-11 16:55 683K
20260411T12Z_MSC_GDPS_WindSpeed_IsbL-0010_LatLon0.15_PT204H.grib2 2026-04-11 16:55 622K
20260411T12Z_MSC_GDPS_WindSpeed_IsbL-0020_LatLon0.15_PT204H.grib2 2026-04-11 16:55 853K
20260411T12Z_MSC_GDPS_WindSpeed_IsbL-0030_LatLon0.15_PT204H.grib2 2026-04-11 16:55 850K
20260411T12Z_MSC_GDPS_WindSpeed_IsbL-0050_LatLon0.15_PT204H.grib2 2026-04-11 16:55 1.0M
20260411T12Z_MSC_GDPS_WindSpeed_IsbL-0100_LatLon0.15_PT204H.grib2 2026-04-11 16:55 1.1M
20260411T12Z_MSC_GDPS_WindSpeed_IsbL-0150_LatLon0.15_PT204H.grib2 2026-04-11 16:55 1.0M
20260411T12Z_MSC_GDPS_WindSpeed_IsbL-0175_LatLon0.15_PT204H.grib2 2026-04-11 16:55 1.0M
20260411T12Z_MSC_GDPS_WindSpeed_IsbL-0200_LatLon0.15_PT204H.grib2 2026-04-11 16:55 1.1M
20260411T12Z_MSC_GDPS_WindSpeed_IsbL-0225_LatLon0.15_PT204H.grib2 2026-04-11 16:55 1.1M
20260411T12Z_MSC_GDPS_WindSpeed_IsbL-0250_LatLon0.15_PT204H.grib2 2026-04-11 16:55 1.1M
20260411T12Z_MSC_GDPS_WindSpeed_IsbL-0275_LatLon0.15_PT204H.grib2 2026-04-11 16:55 1.1M
20260411T12Z_MSC_GDPS_WindSpeed_IsbL-0300_LatLon0.15_PT204H.grib2 2026-04-11 16:55 1.1M
20260411T12Z_MSC_GDPS_WindSpeed_IsbL-0350_LatLon0.15_PT204H.grib2 2026-04-11 16:55 1.1M
20260411T12Z_MSC_GDPS_WindSpeed_IsbL-0400_LatLon0.15_PT204H.grib2 2026-04-11 16:55 1.1M
20260411T12Z_MSC_GDPS_WindSpeed_IsbL-0450_LatLon0.15_PT204H.grib2 2026-04-11 16:55 1.1M
20260411T12Z_MSC_GDPS_WindSpeed_IsbL-0500_LatLon0.15_PT204H.grib2 2026-04-11 16:55 1.1M
20260411T12Z_MSC_GDPS_WindSpeed_IsbL-0550_LatLon0.15_PT204H.grib2 2026-04-11 16:55 1.1M
20260411T12Z_MSC_GDPS_WindSpeed_IsbL-0600_LatLon0.15_PT204H.grib2 2026-04-11 16:55 1.1M
20260411T12Z_MSC_GDPS_WindSpeed_IsbL-0650_LatLon0.15_PT204H.grib2 2026-04-11 16:55 1.2M
20260411T12Z_MSC_GDPS_WindSpeed_IsbL-0700_LatLon0.15_PT204H.grib2 2026-04-11 16:55 1.5M
20260411T12Z_MSC_GDPS_WindSpeed_IsbL-0750_LatLon0.15_PT204H.grib2 2026-04-11 16:55 1.5M
20260411T12Z_MSC_GDPS_WindSpeed_IsbL-0800_LatLon0.15_PT204H.grib2 2026-04-11 16:55 1.6M
20260411T12Z_MSC_GDPS_WindSpeed_IsbL-0850_LatLon0.15_PT204H.grib2 2026-04-11 16:55 1.7M
20260411T12Z_MSC_GDPS_WindSpeed_IsbL-0875_LatLon0.15_PT204H.grib2 2026-04-11 16:55 1.8M
20260411T12Z_MSC_GDPS_WindSpeed_IsbL-0900_LatLon0.15_PT204H.grib2 2026-04-11 16:55 1.8M
20260411T12Z_MSC_GDPS_WindSpeed_IsbL-0925_LatLon0.15_PT204H.grib2 2026-04-11 16:55 1.8M
20260411T12Z_MSC_GDPS_WindSpeed_IsbL-0950_LatLon0.15_PT204H.grib2 2026-04-11 16:55 1.9M
20260411T12Z_MSC_GDPS_WindSpeed_IsbL-0970_LatLon0.15_PT204H.grib2 2026-04-11 16:55 1.9M
20260411T12Z_MSC_GDPS_WindSpeed_IsbL-0985_LatLon0.15_PT204H.grib2 2026-04-11 16:55 1.9M
20260411T12Z_MSC_GDPS_WindSpeed_IsbL-1000_LatLon0.15_PT204H.grib2 2026-04-11 16:55 1.9M
20260411T12Z_MSC_GDPS_WindSpeed_IsbL-1015_LatLon0.15_PT204H.grib2 2026-04-11 16:55 1.8M
20260411T12Z_MSC_GDPS_WindU_AGL-10m_LatLon0.15_PT204H.grib2 2026-04-11 16:55 1.3M
20260411T12Z_MSC_GDPS_WindU_AGL-120m_LatLon0.15_PT204H.grib2 2026-04-11 16:55 1.0M
20260411T12Z_MSC_GDPS_WindU_AGL-40m_LatLon0.15_PT204H.grib2 2026-04-11 16:55 1.0M
20260411T12Z_MSC_GDPS_WindU_AGL-80m_LatLon0.15_PT204H.grib2 2026-04-11 16:55 1.0M
20260411T12Z_MSC_GDPS_WindU_IsbL-0001_LatLon0.15_PT204H.grib2 2026-04-11 16:55 634K
20260411T12Z_MSC_GDPS_WindU_IsbL-0005_LatLon0.15_PT204H.grib2 2026-04-11 16:55 678K
20260411T12Z_MSC_GDPS_WindU_IsbL-0010_LatLon0.15_PT204H.grib2 2026-04-11 16:55 693K
20260411T12Z_MSC_GDPS_WindU_IsbL-0020_LatLon0.15_PT204H.grib2 2026-04-11 16:55 731K
20260411T12Z_MSC_GDPS_WindU_IsbL-0030_LatLon0.15_PT204H.grib2 2026-04-11 16:55 731K
20260411T12Z_MSC_GDPS_WindU_IsbL-0050_LatLon0.15_PT204H.grib2 2026-04-11 16:55 699K
20260411T12Z_MSC_GDPS_WindU_IsbL-0100_LatLon0.15_PT204H.grib2 2026-04-11 16:55 918K
20260411T12Z_MSC_GDPS_WindU_IsbL-0150_LatLon0.15_PT204H.grib2 2026-04-11 16:55 1.0M
20260411T12Z_MSC_GDPS_WindU_IsbL-0175_LatLon0.15_PT204H.grib2 2026-04-11 16:55 1.0M
20260411T12Z_MSC_GDPS_WindU_IsbL-0200_LatLon0.15_PT204H.grib2 2026-04-11 16:55 1.1M
20260411T12Z_MSC_GDPS_WindU_IsbL-0225_LatLon0.15_PT204H.grib2 2026-04-11 16:55 859K
20260411T12Z_MSC_GDPS_WindU_IsbL-0250_LatLon0.15_PT204H.grib2 2026-04-11 16:55 858K
20260411T12Z_MSC_GDPS_WindU_IsbL-0275_LatLon0.15_PT204H.grib2 2026-04-11 16:55 887K
20260411T12Z_MSC_GDPS_WindU_IsbL-0300_LatLon0.15_PT204H.grib2 2026-04-11 16:55 873K
20260411T12Z_MSC_GDPS_WindU_IsbL-0350_LatLon0.15_PT204H.grib2 2026-04-11 16:55 886K
20260411T12Z_MSC_GDPS_WindU_IsbL-0400_LatLon0.15_PT204H.grib2 2026-04-11 16:55 886K
20260411T12Z_MSC_GDPS_WindU_IsbL-0450_LatLon0.15_PT204H.grib2 2026-04-11 16:55 889K
20260411T12Z_MSC_GDPS_WindU_IsbL-0500_LatLon0.15_PT204H.grib2 2026-04-11 16:55 1.1M
20260411T12Z_MSC_GDPS_WindU_IsbL-0550_LatLon0.15_PT204H.grib2 2026-04-11 16:55 1.1M
20260411T12Z_MSC_GDPS_WindU_IsbL-0600_LatLon0.15_PT204H.grib2 2026-04-11 16:55 1.1M
20260411T12Z_MSC_GDPS_WindU_IsbL-0650_LatLon0.15_PT204H.grib2 2026-04-11 16:55 1.2M
20260411T12Z_MSC_GDPS_WindU_IsbL-0700_LatLon0.15_PT204H.grib2 2026-04-11 16:55 1.2M
20260411T12Z_MSC_GDPS_WindU_IsbL-0750_LatLon0.15_PT204H.grib2 2026-04-11 16:55 1.3M
20260411T12Z_MSC_GDPS_WindU_IsbL-0800_LatLon0.15_PT204H.grib2 2026-04-11 16:55 1.3M
20260411T12Z_MSC_GDPS_WindU_IsbL-0850_LatLon0.15_PT204H.grib2 2026-04-11 16:55 1.4M
20260411T12Z_MSC_GDPS_WindU_IsbL-0875_LatLon0.15_PT204H.grib2 2026-04-11 16:55 1.4M
20260411T12Z_MSC_GDPS_WindU_IsbL-0900_LatLon0.15_PT204H.grib2 2026-04-11 16:55 1.5M
20260411T12Z_MSC_GDPS_WindU_IsbL-0925_LatLon0.15_PT204H.grib2 2026-04-11 16:55 1.5M
20260411T12Z_MSC_GDPS_WindU_IsbL-0950_LatLon0.15_PT204H.grib2 2026-04-11 16:55 1.4M
20260411T12Z_MSC_GDPS_WindU_IsbL-0970_LatLon0.15_PT204H.grib2 2026-04-11 16:55 1.4M
20260411T12Z_MSC_GDPS_WindU_IsbL-0985_LatLon0.15_PT204H.grib2 2026-04-11 16:55 1.4M
20260411T12Z_MSC_GDPS_WindU_IsbL-1000_LatLon0.15_PT204H.grib2 2026-04-11 16:55 1.4M
20260411T12Z_MSC_GDPS_WindU_IsbL-1015_LatLon0.15_PT204H.grib2 2026-04-11 16:55 1.3M
20260411T12Z_MSC_GDPS_WindV_AGL-10m_LatLon0.15_PT204H.grib2 2026-04-11 16:55 1.6M
20260411T12Z_MSC_GDPS_WindV_AGL-120m_LatLon0.15_PT204H.grib2 2026-04-11 16:55 1.0M
20260411T12Z_MSC_GDPS_WindV_AGL-40m_LatLon0.15_PT204H.grib2 2026-04-11 16:55 1.2M
20260411T12Z_MSC_GDPS_WindV_AGL-80m_LatLon0.15_PT204H.grib2 2026-04-11 16:55 1.0M
20260411T12Z_MSC_GDPS_WindV_IsbL-0001_LatLon0.15_PT204H.grib2 2026-04-11 16:55 755K
20260411T12Z_MSC_GDPS_WindV_IsbL-0005_LatLon0.15_PT204H.grib2 2026-04-11 16:55 767K
20260411T12Z_MSC_GDPS_WindV_IsbL-0010_LatLon0.15_PT204H.grib2 2026-04-11 16:55 796K
20260411T12Z_MSC_GDPS_WindV_IsbL-0020_LatLon0.15_PT204H.grib2 2026-04-11 16:55 849K
20260411T12Z_MSC_GDPS_WindV_IsbL-0030_LatLon0.15_PT204H.grib2 2026-04-11 16:55 850K
20260411T12Z_MSC_GDPS_WindV_IsbL-0050_LatLon0.15_PT204H.grib2 2026-04-11 16:55 901K
20260411T12Z_MSC_GDPS_WindV_IsbL-0100_LatLon0.15_PT204H.grib2 2026-04-11 16:55 849K
20260411T12Z_MSC_GDPS_WindV_IsbL-0150_LatLon0.15_PT204H.grib2 2026-04-11 16:55 1.0M
20260411T12Z_MSC_GDPS_WindV_IsbL-0175_LatLon0.15_PT204H.grib2 2026-04-11 16:55 1.0M
20260411T12Z_MSC_GDPS_WindV_IsbL-0200_LatLon0.15_PT204H.grib2 2026-04-11 16:55 845K
20260411T12Z_MSC_GDPS_WindV_IsbL-0225_LatLon0.15_PT204H.grib2 2026-04-11 16:55 852K
20260411T12Z_MSC_GDPS_WindV_IsbL-0250_LatLon0.15_PT204H.grib2 2026-04-11 16:55 912K
20260411T12Z_MSC_GDPS_WindV_IsbL-0275_LatLon0.15_PT204H.grib2 2026-04-11 16:55 940K
20260411T12Z_MSC_GDPS_WindV_IsbL-0300_LatLon0.15_PT204H.grib2 2026-04-11 16:55 929K
20260411T12Z_MSC_GDPS_WindV_IsbL-0350_LatLon0.15_PT204H.grib2 2026-04-11 16:55 940K
20260411T12Z_MSC_GDPS_WindV_IsbL-0400_LatLon0.15_PT204H.grib2 2026-04-11 16:55 879K
20260411T12Z_MSC_GDPS_WindV_IsbL-0450_LatLon0.15_PT204H.grib2 2026-04-11 16:55 880K
20260411T12Z_MSC_GDPS_WindV_IsbL-0500_LatLon0.15_PT204H.grib2 2026-04-11 16:55 883K
20260411T12Z_MSC_GDPS_WindV_IsbL-0550_LatLon0.15_PT204H.grib2 2026-04-11 16:55 1.1M
20260411T12Z_MSC_GDPS_WindV_IsbL-0600_LatLon0.15_PT204H.grib2 2026-04-11 16:55 1.1M
20260411T12Z_MSC_GDPS_WindV_IsbL-0650_LatLon0.15_PT204H.grib2 2026-04-11 16:55 1.2M
20260411T12Z_MSC_GDPS_WindV_IsbL-0700_LatLon0.15_PT204H.grib2 2026-04-11 16:55 1.2M
20260411T12Z_MSC_GDPS_WindV_IsbL-0750_LatLon0.15_PT204H.grib2 2026-04-11 16:55 1.2M
20260411T12Z_MSC_GDPS_WindV_IsbL-0800_LatLon0.15_PT204H.grib2 2026-04-11 16:55 1.3M
20260411T12Z_MSC_GDPS_WindV_IsbL-0850_LatLon0.15_PT204H.grib2 2026-04-11 16:55 1.4M
20260411T12Z_MSC_GDPS_WindV_IsbL-0875_LatLon0.15_PT204H.grib2 2026-04-11 16:55 1.4M
20260411T12Z_MSC_GDPS_WindV_IsbL-0900_LatLon0.15_PT204H.grib2 2026-04-11 16:55 1.4M
20260411T12Z_MSC_GDPS_WindV_IsbL-0925_LatLon0.15_PT204H.grib2 2026-04-11 16:55 1.4M
20260411T12Z_MSC_GDPS_WindV_IsbL-0950_LatLon0.15_PT204H.grib2 2026-04-11 16:55 1.4M
20260411T12Z_MSC_GDPS_WindV_IsbL-0970_LatLon0.15_PT204H.grib2 2026-04-11 16:55 1.4M
20260411T12Z_MSC_GDPS_WindV_IsbL-0985_LatLon0.15_PT204H.grib2 2026-04-11 16:55 1.7M
20260411T12Z_MSC_GDPS_WindV_IsbL-1000_LatLon0.15_PT204H.grib2 2026-04-11 16:55 1.7M
20260411T12Z_MSC_GDPS_WindV_IsbL-1015_LatLon0.15_PT204H.grib2 2026-04-11 16:55 1.6M